Weather History for Winfield, KS

Change the Weather History Date:

Friday, May 31, 2013

  Actual Average Record
Temperature  
Mean Temperature 75 °F -  
Max Temperature 86 °F 80 °F 93 °F (1998)
Min Temperature 66 °F 58 °F 51 °F (2004)
Cooling Degree Days 10    
Growing Degree Days 25 (Base 50)    
Moisture  
Dew Point 70 °F    
Average Humidity 85    
Maximum Humidity 100    
Minimum Humidity 65    
Precipitation  
Precipitation 0.00 in - - ()
Sea Level Pressure  
Sea Level Pressure 29.68 in    
Wind  
Wind Speed 8 mph (SE)    
Max Wind Speed 15 mph    
Max Gust Speed 25 mph    
Visibility 10 miles    
Events Rain , Thunderstorm    
Averages and records for this station are not official NWS values.
T = Trace of Precipitation, MM = Missing Value Source: NWS Daily Summary

Daily Weather History Graph

Daily Weather History Graph

Search for Another Location

Airport:

Trip Planner

Search our weather history database for the weather conditions in past years. The results will help you decide how hot, cold, wet, or windy it might be!

Date:

Astronomy

May. 31, 2013 Rise Set
Actual Time 6:09 AM CDT 8:42 PM CDT
Civil Twilight 5:39 AM CDT 9:12 PM CDT
Nautical Twilight 5:02 AM CDT 9:50 PM CDT
Astronomical Twilight 4:20 AM CDT 10:32 PM CDT
Moon 1:24 AM CDT (5/31) 1:19 PM CDT (5/31)
Length of Visible Light 15h 33m
Length of Day
14h 32m
Waning Gibbous, 51% of the Moon is Illuminated
May 31
Waning Gibbous
May 31
Last Quarter
Jun 8
New
Jun 16
First Quarter
Jun 23
Full

Hourly Weather History & Observations

Time (CDT) Temp. Heat Index Dew Point Humidity Pressure Visibility Wind Dir Wind Speed Gust Speed Precip Events Conditions
12:04 AM 69.8 °F - 68.0 °F 94% 29.66 in 10.0 mi ESE 10.4 mph - N/A   Partly Cloudy
12:28 AM 69.8 °F - 68.0 °F 94% 29.65 in 10.0 mi ESE 6.9 mph - N/A   Mostly Cloudy
12:54 AM 70.0 °F - 69.1 °F 97% 29.62 in 10.0 mi SE 10.4 mph - N/A   Scattered Clouds
1:54 AM 71.1 °F - 70.0 °F 96% 29.61 in 10.0 mi ESE 6.9 mph - N/A   Clear
2:54 AM 70.0 °F - 69.1 °F 97% 29.61 in 10.0 mi East 3.5 mph - N/A   Clear
3:33 AM 69.8 °F - 69.8 °F 100% 29.65 in 9.0 mi East 4.6 mph - N/A   Mostly Cloudy
3:54 AM 70.0 °F - 70.0 °F 100% 29.62 in 9.0 mi Calm Calm - N/A   Overcast
4:39 AM 71.6 °F - 69.8 °F 94% 29.66 in 10.0 mi ESE 5.8 mph - N/A   Overcast
4:54 AM 71.1 °F - 70.0 °F 96% 29.62 in 10.0 mi SE 6.9 mph - N/A   Overcast
5:54 AM 71.1 °F - 70.0 °F 96% 29.62 in 10.0 mi SSE 12.7 mph - N/A   Mostly Cloudy
6:54 AM 71.1 °F - 70.0 °F 96% 29.65 in 9.0 mi SSE 8.1 mph - N/A   Scattered Clouds
7:54 AM 73.0 °F - 71.1 °F 93% 29.67 in 10.0 mi South 8.1 mph - N/A   Mostly Cloudy
8:54 AM 77.0 °F - 72.0 °F 84% 29.69 in 10.0 mi SSW 12.7 mph 19.6 mph N/A   Mostly Cloudy
9:49 AM 78.8 °F - 71.6 °F 78% 29.74 in 10.0 mi SSW 11.5 mph - N/A   Mostly Cloudy
9:54 AM 78.1 °F - 72.0 °F 81% 29.71 in 10.0 mi SW 11.5 mph - N/A   Mostly Cloudy
10:54 AM 80.1 °F 84.2 °F 73.0 °F 79% 29.72 in 10.0 mi SSW 10.4 mph - N/A   Mostly Cloudy
11:33 AM 80.6 °F 84.6 °F 71.6 °F 74% 29.74 in 10.0 mi Variable 3.5 mph - N/A   Scattered Clouds
11:54 AM 80.1 °F 83.8 °F 72.0 °F 76% 29.71 in 10.0 mi South 4.6 mph - N/A   Scattered Clouds
12:54 PM 82.0 °F 86.7 °F 72.0 °F 71% 29.70 in 10.0 mi South 8.1 mph - N/A   Clear
1:54 PM 82.0 °F 86.7 °F 72.0 °F 71% 29.69 in 10.0 mi South 4.6 mph - N/A   Clear
2:54 PM 84.0 °F 90.2 °F 73.0 °F 69% 29.68 in 10.0 mi WSW 3.5 mph - N/A   Scattered Clouds
3:54 PM 82.9 °F 87.5 °F 71.1 °F 67% 29.67 in 10.0 mi Calm Calm - N/A   Clear
4:54 PM 84.9 °F 90.7 °F 72.0 °F 65% 29.65 in 10.0 mi Calm Calm - N/A   Partly Cloudy
5:54 PM 80.1 °F 83.8 °F 72.0 °F 76% 29.62 in 10.0 mi North 15.0 mph 25.3 mph N/A   Mostly Cloudy
6:54 PM 78.1 °F - 68.0 °F 71% 29.65 in 10.0 mi North 11.5 mph 19.6 mph N/A   Partly Cloudy
7:54 PM 75.0 °F - 66.9 °F 76% 29.68 in 10.0 mi SE 12.7 mph 20.7 mph N/A Thunderstorm Overcast
8:16 PM 73.4 °F - 66.2 °F 78% 29.73 in 10.0 mi ENE 12.7 mph 18.4 mph 0.00 in Rain Light Rain
8:54 PM 69.1 °F - 66.0 °F 90% 29.73 in 10.0 mi East 4.6 mph - 0.00 in   Clear
9:54 PM 66.9 °F - 64.9 °F 93% 29.72 in 10.0 mi North 8.1 mph - N/A   Partly Cloudy
10:54 PM 66.0 °F - 64.9 °F 96% 29.74 in 10.0 mi East 6.9 mph - N/A   Scattered Clouds
11:54 PM 66.0 °F - 64.0 °F 93% 29.73 in 10.0 mi East 4.6 mph - N/A   Scattered Clouds